| time (UTC) | temp F | wind direction | speed MPH | gust MPH | rain 1hr in | rain 24hr in | rain mn in | humidity % | barometer mb |
| 20260904223603 | 68 | 43 | 3.0 | 6.0 | 0.00 | 0.00 | 0.00 | 97 | 909.6 |
| 20260904223504 | 68 | 51 | 1.0 | 6.0 | 0.00 | 0.00 | 0.00 | 97 | 909.6 |
| 20260904223104 | 68 | 45 | 5.0 | 6.0 | 0.00 | 0.00 | 0.00 | 97 | 909.6 |
| 20260904222904 | 68 | 36 | 5.0 | 6.0 | 0.00 | 0.00 | 0.00 | 97 | 909.6 |
| 20260904222603 | 68 | 46 | 5.0 | 6.0 | 0.00 | 0.00 | 0.00 | 97 | 909.5 |
| 20260904222306 | 68 | 40 | 4.0 | 5.0 | 0.00 | 0.00 | 0.00 | 97 | 909.5 |
| 20260904222103 | 68 | 21 | 4.0 | 5.0 | 0.00 | 0.00 | 0.00 | 97 | 909.5 |
| 20260904221704 | 68 | 53 | 3.0 | 5.0 | 0.00 | 0.00 | 0.00 | 97 | 909.5 |
| 20260904221603 | 68 | 51 | 2.0 | 5.0 | 0.00 | 0.00 | 0.00 | 97 | 909.5 |
| 20260904221104 | 68 | 80 | 3.0 | 5.0 | 0.00 | 0.00 | 0.00 | 97 | 909.5 |
| 20260904220603 | 68 | 39 | 3.0 | 5.0 | 0.00 | 0.00 | 0.00 | 97 | 909.5 |
| 20260904220504 | 68 | 60 | 3.0 | 6.0 | 0.00 | 0.00 | 0.00 | 97 | 909.4 |
| 20260904215904 | 68 | 53 | 4.0 | 6.0 | 0.00 | 0.00 | 0.00 | 97 | 909.4 |
| 20260904215602 | 68 | 44 | 4.0 | 6.0 | 0.00 | 0.00 | 0.00 | 97 | 909.4 |
| 20260904215305 | 68 | 39 | 5.0 | 6.0 | 0.00 | 0.00 | 0.00 | 97 | 909.3 |
| 20260904215103 | 68 | 17 | 5.0 | 6.0 | 0.00 | 0.00 | 0.00 | 97 | 909.3 |
| 20260904214704 | 68 | 38 | 3.0 | 5.0 | 0.00 | 0.00 | 0.00 | 97 | 909.3 |
| 20260904214602 | 68 | 39 | 0.0 | 5.0 | 0.00 | 0.00 | 0.00 | 97 | 909.4 |
| 20260904214107 | 67 | 45 | 0.0 | 0.0 | 0.00 | 0.00 | 0.00 | 97 | 909.4 |
| 20260904213602 | 68 | 36 | 4.0 | 6.0 | 0.00 | 0.00 | 0.00 | 97 | 909.3 |
| 20260904213504 | 68 | 37 | 4.0 | 6.0 | 0.00 | 0.00 | 0.00 | 97 | 909.3 |
| 20260904213102 | 68 | 36 | 5.0 | 6.0 | 0.00 | 0.00 | 0.00 | 97 | 909.3 |
| 20260904212904 | 68 | 38 | 4.0 | 6.0 | 0.00 | 0.00 | 0.00 | 97 | 909.3 |
| 20260904212602 | 68 | 38 | 5.0 | 6.0 | 0.00 | 0.00 | 0.00 | 97 | 909.3 |
| 20260904212306 | 68 | 29 | 5.0 | 6.0 | 0.00 | 0.00 | 0.00 | 97 | 909.3 |
| 20260904212102 | 68 | 50 | 5.0 | 6.0 | 0.00 | 0.00 | 0.00 | 97 | 909.3 |
| 20260904211704 | 68 | 42 | 5.0 | 6.0 | 0.00 | 0.00 | 0.00 | 97 | 909.3 |
| 20260904211602 | 68 | 61 | 5.0 | 6.0 | 0.00 | 0.00 | 0.00 | 97 | 909.3 |
| 20260904211104 | 67 | 40 | 0.0 | 0.0 | 0.00 | 0.00 | 0.00 | 97 | 909.2 |
| 20260904211102 | 67 | 43 | 0.0 | 0.0 | 0.00 | 0.00 | 0.00 | 97 | 909.3 |
| 20260904210602 | 68 | 38 | 1.0 | 4.0 | 0.00 | 0.00 | 0.00 | 97 | 909.3 |
| 20260904210503 | 68 | 46 | 3.0 | 4.0 | 0.00 | 0.00 | 0.00 | 97 | 909.3 |
| 20260904205903 | 68 | 57 | 4.0 | 6.0 | 0.00 | 0.00 | 0.00 | 97 | 909.3 |
| 20260904205602 | 68 | 47 | 4.0 | 6.0 | 0.00 | 0.00 | 0.00 | 97 | 909.3 |
| 20260904205305 | 68 | 48 | 5.0 | 6.0 | 0.00 | 0.00 | 0.00 | 97 | 909.3 |
| 20260904205102 | 68 | 49 | 5.0 | 6.0 | 0.00 | 0.00 | 0.00 | 97 | 909.2 |
| 20260904204703 | 68 | 53 | 5.0 | 6.0 | 0.00 | 0.00 | 0.00 | 97 | 909.3 |
| 20260904204602 | 68 | 45 | 5.0 | 6.0 | 0.00 | 0.00 | 0.00 | 97 | 909.3 |
| 20260904204104 | 68 | 50 | 4.0 | 5.0 | 0.00 | 0.00 | 0.00 | 97 | 909.2 |
| 20260904204102 | 68 | 49 | 4.0 | 5.0 | 0.00 | 0.00 | 0.00 | 97 | 909.3 |
| 20260904203602 | 68 | 44 | 4.0 | 5.0 | 0.00 | 0.00 | 0.00 | 96 | 909.3 |
| 20260904203503 | 68 | 50 | 4.0 | 5.0 | 0.00 | 0.00 | 0.00 | 96 | 909.3 |
| 20260904203102 | 68 | 54 | 4.0 | 5.0 | 0.00 | 0.00 | 0.00 | 96 | 909.2 |
| 20260904202903 | 68 | 25 | 4.0 | 5.0 | 0.00 | 0.00 | 0.00 | 96 | 909.2 |
| 20260904202602 | 68 | 39 | 4.0 | 5.0 | 0.00 | 0.00 | 0.00 | 96 | 909.3 |
| 20260904202305 | 68 | 31 | 4.0 | 6.0 | 0.00 | 0.00 | 0.00 | 96 | 909.2 |
| 20260904201703 | 68 | 25 | 4.0 | 6.0 | 0.00 | 0.00 | 0.00 | 96 | 909.1 |
| 20260904201602 | 68 | 30 | 4.0 | 6.0 | 0.00 | 0.00 | 0.00 | 96 | 909.2 |
| 20260904201103 | 68 | 48 | 4.0 | 5.0 | 0.00 | 0.00 | 0.00 | 96 | 909.1 |
| 20260904200602 | 68 | 35 | 4.0 | 5.0 | 0.00 | 0.00 | 0.00 | 95 | 909.1 |
| 20260904200503 | 68 | 25 | 4.0 | 5.0 | 0.00 | 0.00 | 0.00 | 95 | 909.1 |
| 20260904195903 | 68 | 23 | 5.0 | 6.0 | 0.00 | 0.00 | 0.00 | 96 | 909.1 |
| 20260904195305 | 68 | 6 | 4.0 | 6.0 | 0.00 | 0.00 | 0.00 | 96 | 909.0 |
| 20260904195101 | 68 | 26 | 5.0 | 6.0 | 0.00 | 0.00 | 0.00 | 96 | 909.0 |
| 20260904194703 | 68 | 13 | 5.0 | 5.0 | 0.00 | 0.00 | 0.00 | 96 | 909.0 |
| 20260904194601 | 68 | 25 | 5.0 | 5.0 | 0.00 | 0.00 | 0.00 | 96 | 909.0 |
| 20260904194103 | 68 | 33 | 3.0 | 4.0 | 0.00 | 0.00 | 0.00 | 96 | 909.0 |
| 20260904194101 | 68 | 34 | 3.0 | 4.0 | 0.00 | 0.00 | 0.00 | 96 | 909.0 |
| 20260904193602 | 68 | 40 | 2.0 | 3.0 | 0.00 | 0.00 | 0.00 | 96 | 909.1 |
| 20260904193503 | 68 | 51 | 2.0 | 2.0 | 0.00 | 0.00 | 0.00 | 96 | 909.0 |
| 20260904193101 | 68 | 53 | 1.0 | 2.0 | 0.00 | 0.00 | 0.00 | 96 | 909.1 |
| 20260904192903 | 68 | 38 | 1.0 | 2.0 | 0.00 | 0.00 | 0.00 | 95 | 909.1 |
| 20260904192601 | 68 | 77 | 0.0 | 0.0 | 0.00 | 0.00 | 0.00 | 95 | 909.1 |
| 20260904192306 | 68 | 189 | 0.0 | 0.0 | 0.00 | 0.00 | 0.00 | 95 | 909.0 |
| 20260904192101 | 68 | 187 | 0.0 | 0.0 | 0.00 | 0.00 | 0.00 | 95 | 909.0 |
| 20260904191702 | 68 | 188 | 0.0 | 1.0 | 0.00 | 0.00 | 0.00 | 95 | 909.0 |
| 20260904191601 | 68 | 186 | 0.0 | 1.0 | 0.00 | 0.00 | 0.00 | 95 | 908.9 |
| 20260904191103 | 68 | 74 | 0.0 | 2.0 | 0.00 | 0.00 | 0.00 | 95 | 908.9 |
| 20260904190601 | 68 | 50 | 1.0 | 2.0 | 0.00 | 0.00 | 0.00 | 95 | 908.9 |
| 20260904190502 | 68 | 41 | 1.0 | 2.0 | 0.00 | 0.00 | 0.00 | 95 | 908.9 |
| 20260904190101 | 68 | 360 | 0.0 | 1.0 | 0.00 | 0.00 | 0.00 | 95 | 908.9 |
| 20260904185902 | 68 | 11 | 1.0 | 1.0 | 0.00 | 0.00 | 0.00 | 95 | 908.9 |
| 20260904185601 | 68 | 35 | 1.0 | 2.0 | 0.00 | 0.00 | 0.00 | 95 | 908.9 |
| 20260904185306 | 68 | 29 | 1.0 | 2.0 | 0.00 | 0.00 | 0.00 | 95 | 908.9 |
| 20260904185101 | 68 | 29 | 1.0 | 2.0 | 0.00 | 0.00 | 0.00 | 95 | 908.9 |
| 20260904184702 | 68 | 15 | 1.0 | 3.0 | 0.00 | 0.00 | 0.00 | 95 | 908.9 |
| 20260904184601 | 68 | 358 | 1.0 | 3.0 | 0.00 | 0.00 | 0.00 | 95 | 908.8 |
| 20260904184103 | 68 | 7 | 1.0 | 3.0 | 0.00 | 0.00 | 0.00 | 94 | 908.8 |
| 20260904184101 | 68 | 5 | 1.0 | 3.0 | 0.00 | 0.00 | 0.00 | 94 | 908.8 |
| 20260904183601 | 68 | 321 | 0.0 | 4.0 | 0.00 | 0.00 | 0.00 | 94 | 908.9 |
| 20260904183502 | 69 | 287 | 0.0 | 4.0 | 0.00 | 0.00 | 0.00 | 94 | 908.9 |
| 20260904183101 | 69 | 12 | 3.0 | 5.0 | 0.00 | 0.00 | 0.00 | 94 | 908.9 |
| 20260904182902 | 69 | 26 | 3.0 | 5.0 | 0.00 | 0.00 | 0.00 | 93 | 908.9 |
| 20260904182601 | 69 | 26 | 3.0 | 5.0 | 0.00 | 0.00 | 0.00 | 93 | 908.9 |
| 20260904182305 | 69 | 38 | 4.0 | 5.0 | 0.00 | 0.00 | 0.00 | 93 | 908.9 |
| 20260904182101 | 69 | 54 | 4.0 | 5.0 | 0.00 | 0.00 | 0.00 | 93 | 908.8 |
| 20260904181702 | 69 | 66 | 3.0 | 4.0 | 0.00 | 0.00 | 0.00 | 92 | 908.9 |
| 20260904181601 | 69 | 49 | 3.0 | 5.0 | 0.00 | 0.00 | 0.00 | 92 | 908.9 |
| 20260904181103 | 69 | 26 | 3.0 | 5.0 | 0.00 | 0.00 | 0.00 | 92 | 908.9 |
| 20260904181101 | 69 | 25 | 3.0 | 5.0 | 0.00 | 0.00 | 0.00 | 92 | 908.9 |
| 20260904180602 | 69 | 39 | 4.0 | 5.0 | 0.00 | 0.00 | 0.00 | 92 | 908.9 |
| 20260904180502 | 69 | 43 | 4.0 | 5.0 | 0.00 | 0.00 | 0.00 | 92 | 909.0 |
| 20260904180101 | 69 | 38 | 3.0 | 4.0 | 0.00 | 0.00 | 0.00 | 92 | 908.9 |
| 20260904175902 | 69 | 39 | 2.0 | 4.0 | 0.00 | 0.00 | 0.00 | 92 | 908.9 |
| 20260904175601 | 69 | 35 | 3.0 | 5.0 | 0.00 | 0.00 | 0.00 | 92 | 909.0 |
| 20260904175305 | 69 | 29 | 4.0 | 5.0 | 0.00 | 0.00 | 0.00 | 92 | 909.0 |
| 20260904175102 | 69 | 41 | 4.0 | 5.0 | 0.00 | 0.00 | 0.00 | 91 | 909.0 |
| 20260904174702 | 69 | 55 | 4.0 | 6.0 | 0.00 | 0.00 | 0.00 | 92 | 909.0 |
| 20260904174601 | 69 | 16 | 4.0 | 6.0 | 0.00 | 0.00 | 0.00 | 92 | 909.0 |
| 20260904174101 | 69 | 38 | 4.0 | 6.0 | 0.00 | 0.00 | 0.00 | 92 | 909.1 |
| 20260904173601 | 69 | 46 | 4.0 | 6.0 | 0.00 | 0.00 | 0.00 | 92 | 909.2 |
| 20260904173502 | 69 | 28 | 4.0 | 5.0 | 0.00 | 0.00 | 0.00 | 92 | 909.2 |
| 20260904173100 | 69 | 44 | 5.0 | 5.0 | 0.00 | 0.00 | 0.00 | 92 | 909.1 |
| 20260904172600 | 69 | 40 | 4.0 | 4.0 | 0.00 | 0.00 | 0.00 | 92 | 909.2 |
| 20260904172100 | 69 | 38 | 2.0 | 2.0 | 0.00 | 0.00 | 0.00 | 92 | 909.3 |
| 20260904171600 | 69 | 56 | 1.0 | 4.0 | 0.00 | 0.00 | 0.00 | 92 | 909.3 |
| 20260904171102 | 69 | 54 | 2.0 | 5.0 | 0.00 | 0.00 | 0.00 | 92 | 909.4 |
| 20260904171100 | 69 | 52 | 2.0 | 5.0 | 0.00 | 0.00 | 0.00 | 92 | 909.4 |
| 20260904170600 | 69 | 49 | 4.0 | 5.0 | 0.00 | 0.00 | 0.00 | 92 | 909.4 |
| 20260904170502 | 69 | 58 | 4.0 | 5.0 | 0.00 | 0.00 | 0.00 | 92 | 909.4 |
| 20260904170100 | 69 | 47 | 4.0 | 5.0 | 0.00 | 0.00 | 0.00 | 92 | 909.4 |
| 20260904165902 | 69 | 50 | 1.0 | 5.0 | 0.00 | 0.00 | 0.00 | 92 | 909.5 |
| 20260904165600 | 69 | 43 | 4.0 | 5.0 | 0.00 | 0.00 | 0.00 | 92 | 909.4 |
| 20260904164701 | 69 | 43 | 4.0 | 5.0 | 0.00 | 0.00 | 0.00 | 92 | 909.5 |
| 20260904164600 | 69 | 46 | 4.0 | 5.0 | 0.00 | 0.00 | 0.00 | 92 | 909.5 |
| 20260904164102 | 68 | 43 | 0.0 | 5.0 | 0.00 | 0.00 | 0.00 | 92 | 909.6 |
| 20260904164100 | 68 | 45 | 0.0 | 5.0 | 0.00 | 0.00 | 0.00 | 92 | 909.6 |
| 20260904161102 | 69 | 61 | 2.0 | 5.0 | 0.00 | 0.00 | 0.00 | 91 | 909.6 |
| 20260904161100 | 69 | 66 | 2.0 | 5.0 | 0.00 | 0.00 | 0.00 | 91 | 909.7 |
| 20260904155100 | 69 | 62 | 0.0 | 3.0 | 0.00 | 0.00 | 0.00 | 91 | 909.7 |
| 20260904153100 | 70 | 56 | 1.0 | 3.0 | 0.00 | 0.00 | 0.00 | 90 | 909.8 |
| 20260904152559 | 70 | 52 | 2.0 | 3.0 | 0.00 | 0.00 | 0.00 | 90 | 909.8 |
| 20260904152301 | 70 | 42 | 2.0 | 2.0 | 0.00 | 0.00 | 0.00 | 90 | 909.8 |
| 20260904152059 | 70 | 47 | 2.0 | 2.0 | 0.00 | 0.00 | 0.00 | 90 | 909.8 |
| 20260904151701 | 70 | 49 | 0.0 | 0.0 | 0.00 | 0.00 | 0.00 | 90 | 909.8 |
| 20260904151559 | 70 | 47 | 0.0 | 3.0 | 0.00 | 0.00 | 0.00 | 90 | 909.8 |
| 20260904151101 | 70 | 55 | 2.0 | 3.0 | 0.00 | 0.00 | 0.00 | 90 | 909.8 |
| 20260904151059 | 70 | 58 | 2.0 | 3.0 | 0.00 | 0.00 | 0.00 | 90 | 909.8 |
| 20260904150559 | 70 | 66 | 1.0 | 2.0 | 0.00 | 0.00 | 0.00 | 90 | 909.8 |
| 20260904150501 | 70 | 63 | 1.0 | 1.0 | 0.00 | 0.00 | 0.00 | 90 | 909.9 |
| 20260904150059 | 70 | 121 | 0.0 | 3.0 | 0.00 | 0.00 | 0.00 | 90 | 909.9 |
| 20260904145901 | 70 | 165 | 1.0 | 6.0 | 0.00 | 0.00 | 0.00 | 90 | 909.8 |
| 20260904145559 | 70 | 179 | 1.0 | 6.0 | 0.00 | 0.00 | 0.00 | 90 | 909.9 |
| 20260904145301 | 70 | 102 | 2.0 | 7.0 | 0.00 | 0.00 | 0.00 | 90 | 909.9 |
| 20260904145059 | 70 | 72 | 4.0 | 7.0 | 0.00 | 0.00 | 0.00 | 90 | 909.9 |
| 20260904144701 | 70 | 65 | 5.0 | 7.0 | 0.00 | 0.00 | 0.00 | 90 | 909.9 |
| 20260904144559 | 70 | 45 | 3.0 | 7.0 | 0.00 | 0.00 | 0.00 | 90 | 909.8 |
| 20260904144059 | 70 | 80 | 5.0 | 7.0 | 0.00 | 0.00 | 0.00 | 90 | 909.9 |
| 20260904143500 | 70 | 57 | 3.0 | 6.0 | 0.00 | 0.00 | 0.00 | 90 | 910.0 |
| 20260904143059 | 70 | 43 | 1.0 | 4.0 | 0.00 | 0.00 | 0.00 | 91 | 910.0 |
| 20260904142059 | 69 | 26 | 1.0 | 3.0 | 0.00 | 0.00 | 0.00 | 90 | 910.0 |
| 20260904141700 | 69 | 40 | 0.0 | 1.0 | 0.00 | 0.00 | 0.00 | 90 | 910.0 |
| 20260904141559 | 69 | 43 | 0.0 | 1.0 | 0.00 | 0.00 | 0.00 | 90 | 910.0 |
| 20260904141101 | 69 | 109 | 0.0 | 1.0 | 0.00 | 0.00 | 0.00 | 91 | 909.9 |
| 20260904141059 | 69 | 108 | 0.0 | 1.0 | 0.00 | 0.00 | 0.00 | 91 | 909.9 |
| 20260904140559 | 69 | 32 | 1.0 | 1.0 | 0.00 | 0.00 | 0.00 | 91 | 909.9 |
| 20260904140500 | 69 | 41 | 1.0 | 1.0 | 0.00 | 0.00 | 0.00 | 91 | 909.9 |
| 20260904140059 | 69 | 244 | 0.0 | 0.0 | 0.00 | 0.00 | 0.00 | 92 | 909.8 |
| 20260904135900 | 69 | 200 | 0.0 | 1.0 | 0.00 | 0.00 | 0.00 | 92 | 909.9 |
| 20260904135559 | 69 | 307 | 0.0 | 1.0 | 0.00 | 0.00 | 0.00 | 92 | 909.8 |
| 20260904135300 | 69 | 303 | 1.0 | 1.0 | 0.00 | 0.00 | 0.00 | 92 | 909.8 |
| 20260904135059 | 69 | 290 | 1.0 | 1.0 | 0.00 | 0.00 | 0.00 | 92 | 909.8 |
| 20260904134700 | 69 | 10 | 1.0 | 1.0 | 0.00 | 0.00 | 0.00 | 93 | 909.8 |
| 20260904134559 | 69 | 10 | 1.0 | 1.0 | 0.00 | 0.00 | 0.00 | 93 | 909.8 |
| 20260904134102 | 69 | 18 | 0.0 | 1.0 | 0.00 | 0.00 | 0.00 | 93 | 909.7 |
| 20260904134100 | 69 | 17 | 0.0 | 1.0 | 0.00 | 0.00 | 0.00 | 93 | 909.7 |
| 20260904133558 | 69 | 46 | 1.0 | 1.0 | 0.00 | 0.00 | 0.00 | 93 | 909.7 |
| 20260904133058 | 69 | 41 | 1.0 | 4.0 | 0.00 | 0.00 | 0.00 | 92 | 909.7 |
| 20260904132900 | 69 | 45 | 1.0 | 4.0 | 0.00 | 0.00 | 0.00 | 92 | 909.6 |
| 20260904132559 | 69 | 73 | 2.0 | 4.0 | 0.00 | 0.00 | 0.00 | 91 | 909.7 |
| 20260904132300 | 69 | 25 | 1.0 | 2.0 | 0.00 | 0.00 | 0.00 | 91 | 909.7 |
| 20260904132058 | 69 | 24 | 2.0 | 2.0 | 0.00 | 0.00 | 0.00 | 91 | 909.7 |
| 20260904131700 | 69 | 355 | 0.0 | 2.0 | 0.00 | 0.00 | 0.00 | 91 | 909.6 |
| 20260904131558 | 69 | 348 | 2.0 | 2.0 | 0.00 | 0.00 | 0.00 | 91 | 909.6 |
| 20260904131100 | 69 | 19 | 0.0 | 1.0 | 0.00 | 0.00 | 0.00 | 92 | 909.6 |
| 20260904131058 | 69 | 18 | 0.0 | 1.0 | 0.00 | 0.00 | 0.00 | 92 | 909.6 |
| 20260904130558 | 69 | 36 | 1.0 | 2.0 | 0.00 | 0.00 | 0.00 | 92 | 909.5 |
| 20260904130500 | 69 | 26 | 0.0 | 2.0 | 0.00 | 0.00 | 0.00 | 92 | 909.5 |
| 20260904130058 | 69 | 24 | 1.0 | 2.0 | 0.00 | 0.00 | 0.00 | 93 | 909.4 |
| 20260904125900 | 68 | 47 | 2.0 | 2.0 | 0.00 | 0.00 | 0.00 | 93 | 909.4 |
| 20260904124600 | 67 | 35 | 0.0 | 0.0 | 0.00 | 0.00 | 0.00 | 95 | 909.4 |
| 20260904123058 | 68 | 347 | 0.0 | 0.0 | 0.00 | 0.00 | 0.00 | 95 | 909.1 |
| 20260904122859 | 68 | 348 | 0.0 | 1.0 | 0.00 | 0.00 | 0.00 | 96 | 909.0 |
| 20260904122259 | 68 | 55 | 0.0 | 0.0 | 0.00 | 0.00 | 0.00 | 96 | 908.9 |
| 20260904121600 | 68 | 278 | 0.0 | 0.0 | 0.00 | 0.00 | 0.00 | 96 | 908.9 |
| 20260904121102 | 68 | 217 | 0.0 | 1.0 | 0.00 | 0.00 | 0.00 | 96 | 908.9 |
| 20260904121100 | 68 | 219 | 0.0 | 1.0 | 0.00 | 0.00 | 0.00 | 96 | 908.9 |
| 20260904120058 | 68 | 205 | 1.0 | 2.0 | 0.00 | 0.00 | 0.00 | 96 | 908.7 |
| 20260904115859 | 68 | 206 | 0.0 | 2.0 | 0.00 | 0.00 | 0.00 | 97 | 908.7 |
| 20260904115259 | 68 | 197 | 0.0 | 1.0 | 0.00 | 0.00 | 0.00 | 96 | 908.7 |
| 20260904114659 | 68 | 205 | 0.0 | 1.0 | 0.00 | 0.00 | 0.00 | 96 | 908.6 |
| 20260904114559 | 68 | 163 | 0.0 | 1.0 | 0.00 | 0.00 | 0.00 | 96 | 908.6 |
| 20260904114059 | 68 | 192 | 1.0 | 2.0 | 0.00 | 0.00 | 0.00 | 96 | 908.6 |
| 20260904113558 | 68 | 192 | 0.0 | 2.0 | 0.00 | 0.00 | 0.00 | 96 | 908.4 |
| 20260904113058 | 68 | 220 | 2.0 | 2.0 | 0.00 | 0.00 | 0.00 | 96 | 908.4 |
| 20260904112859 | 68 | 238 | 2.0 | 2.0 | 0.00 | 0.00 | 0.00 | 96 | 908.4 |
| 20260904112259 | 68 | 222 | 1.0 | 3.0 | 0.00 | 0.00 | 0.00 | 95 | 908.4 |
| 20260904112057 | 68 | 245 | 0.0 | 1.0 | 0.00 | 0.00 | 0.00 | 95 | 908.4 |
| 20260904111659 | 68 | 205 | 1.0 | 2.0 | 0.00 | 0.00 | 0.00 | 95 | 908.4 |
| 20260904111558 | 68 | 198 | 0.0 | 1.0 | 0.00 | 0.00 | 0.00 | 95 | 908.3 |
| 20260904111059 | 68 | 221 | 0.0 | 1.0 | 0.00 | 0.00 | 0.00 | 94 | 908.3 |
| 20260904110557 | 68 | 260 | 0.0 | 2.0 | 0.00 | 0.00 | 0.00 | 94 | 908.4 |
| 20260904110500 | 68 | 264 | 0.0 | 0.0 | 0.00 | 0.00 | 0.00 | 94 | 908.3 |
| 20260904104659 | 68 | 268 | 1.0 | 2.0 | 0.00 | 0.00 | 0.00 | 94 | 908.1 |
| 20260904104557 | 68 | 264 | 1.0 | 2.0 | 0.00 | 0.00 | 0.00 | 94 | 908.1 |
| 20260904103557 | 68 | 258 | 1.0 | 3.0 | 0.00 | 0.00 | 0.00 | 94 | 907.9 |
| 20260904103458 | 68 | 268 | 1.0 | 3.0 | 0.00 | 0.00 | 0.00 | 94 | 907.9 |
| 20260904103057 | 68 | 264 | 2.0 | 3.0 | 0.00 | 0.00 | 0.00 | 94 | 907.9 |
| 20260904102900 | 68 | 256 | 2.0 | 4.0 | 0.00 | 0.00 | 0.00 | 94 | 907.8 |
| 20260904102557 | 68 | 261 | 2.0 | 4.0 | 0.00 | 0.00 | 0.00 | 94 | 907.8 |
| 20260904102258 | 68 | 259 | 2.0 | 4.0 | 0.00 | 0.00 | 0.00 | 94 | 907.8 |
| 20260904101658 | 68 | 250 | 2.0 | 4.0 | 0.00 | 0.00 | 0.00 | 94 | 907.8 |
| 20260904101557 | 68 | 272 | 3.0 | 4.0 | 0.00 | 0.00 | 0.00 | 94 | 907.8 |
| 20260904101059 | 68 | 246 | 3.0 | 5.0 | 0.00 | 0.00 | 0.00 | 94 | 907.8 |
| 20260904101057 | 68 | 231 | 3.0 | 5.0 | 0.00 | 0.00 | 0.00 | 94 | 907.8 |
| 20260904100557 | 68 | 261 | 2.0 | 4.0 | 0.00 | 0.00 | 0.00 | 95 | 907.8 |
| 20260904100458 | 68 | 267 | 2.0 | 4.0 | 0.00 | 0.00 | 0.00 | 95 | 907.8 |
| 20260904095858 | 68 | 266 | 3.0 | 4.0 | 0.00 | 0.00 | 0.00 | 95 | 907.7 |
| 20260904095557 | 68 | 274 | 2.0 | 4.0 | 0.00 | 0.00 | 0.00 | 95 | 907.7 |
| 20260904095258 | 68 | 217 | 2.0 | 3.0 | 0.00 | 0.00 | 0.00 | 95 | 907.6 |
| 20260904095057 | 68 | 272 | 1.0 | 3.0 | 0.00 | 0.00 | 0.00 | 95 | 907.7 |
| 20260904094658 | 68 | 233 | 2.0 | 3.0 | 0.00 | 0.00 | 0.00 | 95 | 907.6 |
| 20260904094558 | 68 | 239 | 2.0 | 3.0 | 0.00 | 0.00 | 0.00 | 96 | 907.7 |
| 20260904094058 | 68 | 228 | 2.0 | 4.0 | 0.00 | 0.00 | 0.00 | 95 | 907.7 |
| 20260904093458 | 68 | 218 | 2.0 | 3.0 | 0.00 | 0.00 | 0.00 | 95 | 907.6 |
| 20260904093057 | 68 | 226 | 0.0 | 2.0 | 0.00 | 0.00 | 0.00 | 96 | 907.6 |
| 20260904092858 | 68 | 224 | 2.0 | 4.0 | 0.00 | 0.00 | 0.00 | 95 | 907.6 |
| 20260904092557 | 69 | 269 | 2.0 | 4.0 | 0.00 | 0.00 | 0.00 | 95 | 907.5 |
| 20260904092258 | 69 | 224 | 1.0 | 3.0 | 0.00 | 0.00 | 0.00 | 95 | 907.5 |
| 20260904092057 | 69 | 246 | 1.0 | 3.0 | 0.00 | 0.00 | 0.00 | 95 | 907.5 |
| 20260904091658 | 69 | 232 | 1.0 | 3.0 | 0.00 | 0.00 | 0.00 | 95 | 907.5 |
| 20260904091558 | 69 | 262 | 1.0 | 3.0 | 0.00 | 0.00 | 0.00 | 95 | 907.5 |
| 20260904091058 | 69 | 206 | 2.0 | 4.0 | 0.00 | 0.00 | 0.00 | 95 | 907.4 |
| 20260904091056 | 69 | 199 | 2.0 | 4.0 | 0.00 | 0.00 | 0.00 | 95 | 907.5 |
| 20260904090557 | 69 | 220 | 2.0 | 4.0 | 0.00 | 0.00 | 0.00 | 95 | 907.4 |
| 20260904090458 | 69 | 254 | 2.0 | 4.0 | 0.00 | 0.00 | 0.00 | 95 | 907.4 |
| 20260904090056 | 69 | 277 | 2.0 | 4.0 | 0.00 | 0.00 | 0.00 | 95 | 907.3 |
| 20260904085556 | 69 | 297 | 3.0 | 5.0 | 0.00 | 0.00 | 0.00 | 95 | 907.3 |
| 20260904085258 | 69 | 258 | 4.0 | 5.0 | 0.00 | 0.00 | 0.00 | 95 | 907.3 |
| 20260904085056 | 69 | 251 | 1.0 | 5.0 | 0.00 | 0.00 | 0.00 | 95 | 907.2 |
| 20260904084658 | 69 | 244 | 3.0 | 6.0 | 0.00 | 0.00 | 0.00 | 95 | 907.2 |
| 20260904084556 | 69 | 226 | 3.0 | 6.0 | 0.00 | 0.00 | 0.00 | 95 | 907.2 |
| 20260904084058 | 69 | 230 | 3.0 | 6.0 | 0.00 | 0.00 | 0.00 | 94 | 907.2 |
| 20260904083556 | 69 | 211 | 3.0 | 5.0 | 0.00 | 0.00 | 0.00 | 94 | 907.2 |
| 20260904083458 | 69 | 259 | 3.0 | 5.0 | 0.00 | 0.00 | 0.00 | 94 | 907.2 |
| 20260904083056 | 69 | 227 | 2.0 | 6.0 | 0.00 | 0.00 | 0.00 | 94 | 907.1 |
| 20260904082858 | 68 | 234 | 3.0 | 7.0 | 0.00 | 0.00 | 0.00 | 94 | 907.1 |
| 20260904082556 | 68 | 230 | 3.0 | 7.0 | 0.00 | 0.00 | 0.00 | 93 | 907.1 |
| 20260904082257 | 68 | 251 | 5.0 | 7.0 | 0.00 | 0.00 | 0.00 | 93 | 907.0 |
| 20260904081658 | 69 | 219 | 1.0 | 6.0 | 0.00 | 0.00 | 0.00 | 93 | 907.1 |
| 20260904081556 | 69 | 230 | 4.0 | 6.0 | 0.00 | 0.00 | 0.00 | 93 | 907.0 |
| 20260904081058 | 69 | 225 | 2.0 | 3.0 | 0.00 | 0.00 | 0.00 | 93 | 907.0 |
| 20260904081056 | 69 | 222 | 2.0 | 3.0 | 0.00 | 0.00 | 0.00 | 93 | 907.0 |
| 20260904080556 | 69 | 203 | 1.0 | 2.0 | 0.00 | 0.00 | 0.00 | 92 | 907.0 |
| 20260904080458 | 69 | 207 | 0.0 | 2.0 | 0.00 | 0.00 | 0.00 | 92 | 907.0 |
| 20260904080056 | 70 | 220 | 2.0 | 3.0 | 0.00 | 0.00 | 0.00 | 92 | 907.1 |
| 20260904075857 | 70 | 207 | 1.0 | 2.0 | 0.00 | 0.00 | 0.00 | 92 | 907.0 |
| 20260904075556 | 70 | 208 | 0.0 | 2.0 | 0.00 | 0.00 | 0.00 | 92 | 907.0 |
| 20260904075257 | 70 | 258 | 1.0 | 3.0 | 0.00 | 0.00 | 0.00 | 92 | 907.0 |
| 20260904075056 | 71 | 225 | 1.0 | 3.0 | 0.00 | 0.00 | 0.00 | 91 | 907.0 |
| 20260904074700 | 71 | 175 | 1.0 | 3.0 | 0.00 | 0.00 | 0.00 | 91 | 906.9 |
| 20260904074556 | 71 | 221 | 1.0 | 3.0 | 0.00 | 0.00 | 0.00 | 91 | 907.0 |
| 20260904074056 | 71 | 220 | 2.0 | 3.0 | 0.00 | 0.00 | 0.00 | 91 | 906.9 |
| 20260904073556 | 72 | 225 | 0.0 | 0.0 | 0.00 | 0.00 | 0.00 | 91 | 906.9 |
| 20260904073457 | 72 | 193 | 1.0 | 6.0 | 0.00 | 0.00 | 0.00 | 90 | 906.9 |
| 20260904073056 | 72 | 180 | 1.0 | 6.0 | 0.00 | 0.00 | 0.00 | 91 | 907.0 |
| 20260904072857 | 72 | 147 | 2.0 | 6.0 | 0.00 | 0.00 | 0.00 | 91 | 907.0 |
| 20260904072556 | 72 | 118 | 2.0 | 6.0 | 0.00 | 0.00 | 0.00 | 91 | 907.0 |
| 20260904072257 | 72 | 194 | 1.0 | 3.0 | 0.00 | 0.00 | 0.00 | 91 | 907.0 |
| 20260904072056 | 72 | 166 | 0.0 | 1.0 | 0.00 | 0.00 | 0.00 | 91 | 907.0 |
| 20260904071657 | 72 | 320 | 0.0 | 1.0 | 0.00 | 0.00 | 0.00 | 91 | 906.9 |
| 20260904071556 | 72 | 115 | 0.0 | 0.0 | 0.00 | 0.00 | 0.00 | 91 | 906.9 |
| 20260904071057 | 71 | 138 | 0.0 | 0.0 | 0.00 | 0.00 | 0.00 | 92 | 906.9 |
| 20260904071055 | 71 | 156 | 0.0 | 0.0 | 0.00 | 0.00 | 0.00 | 92 | 906.9 |
| 20260904065556 | 72 | 243 | 0.0 | 2.0 | 0.00 | 0.00 | 0.00 | 91 | 906.9 |
| 20260904064057 | 71 | 222 | 1.0 | 4.0 | 0.00 | 0.00 | 0.00 | 91 | 906.9 |
| 20260904064055 | 71 | 224 | 1.0 | 4.0 | 0.00 | 0.00 | 0.00 | 91 | 906.9 |
| 20260904063555 | 71 | 296 | 2.0 | 4.0 | 0.00 | 0.00 | 0.00 | 92 | 906.9 |
| 20260904063457 | 71 | 249 | 2.0 | 4.0 | 0.00 | 0.00 | 0.00 | 92 | 906.9 |
| 20260904063055 | 71 | 254 | 1.0 | 4.0 | 0.00 | 0.00 | 0.00 | 92 | 906.9 |
| 20260904062857 | 71 | 288 | 1.0 | 6.0 | 0.00 | 0.00 | 0.00 | 92 | 906.8 |
| 20260904062555 | 71 | 277 | 1.0 | 7.0 | 0.00 | 0.00 | 0.00 | 92 | 906.9 |
| 20260904062256 | 71 | 178 | 1.0 | 7.0 | 0.00 | 0.00 | 0.00 | 92 | 906.9 |
| 20260904062055 | 71 | 290 | 3.0 | 7.0 | 0.00 | 0.00 | 0.00 | 92 | 906.9 |
| 20260904061656 | 71 | 280 | 2.0 | 7.0 | 0.00 | 0.00 | 0.00 | 93 | 906.9 |
| 20260904061555 | 71 | 293 | 2.0 | 7.0 | 0.00 | 0.00 | 0.00 | 93 | 906.8 |
| 20260904061057 | 71 | 265 | 2.0 | 6.0 | 0.00 | 0.00 | 0.00 | 93 | 906.8 |
| 20260904061055 | 71 | 269 | 2.0 | 6.0 | 0.00 | 0.00 | 0.00 | 93 | 906.8 |
| 20260904060555 | 71 | 229 | 3.0 | 6.0 | 0.00 | 0.00 | 0.00 | 92 | 906.9 |
| 20260904060456 | 71 | 257 | 3.0 | 6.0 | 0.00 | 0.00 | 0.00 | 92 | 906.8 |
| 20260904060055 | 72 | 249 | 3.0 | 5.0 | 0.00 | 0.00 | 0.00 | 92 | 906.8 |
| 20260904055856 | 72 | 264 | 1.0 | 4.0 | 0.00 | 0.00 | 0.00 | 92 | 906.8 |
| 20260904055555 | 72 | 291 | 1.0 | 4.0 | 0.00 | 0.00 | 0.00 | 93 | 906.9 |
| 20260904055256 | 71 | 263 | 3.0 | 7.0 | 0.00 | 0.00 | 0.00 | 92 | 906.8 |
| 20260904055055 | 71 | 281 | 3.0 | 7.0 | 0.00 | 0.00 | 0.00 | 93 | 906.9 |
| 20260904054656 | 71 | 258 | 4.0 | 7.0 | 0.00 | 0.00 | 0.00 | 93 | 906.8 |
| 20260904054555 | 70 | 238 | 4.0 | 9.0 | 0.00 | 0.00 | 0.00 | 92 | 906.8 |
| 20260904054058 | 71 | 265 | 4.0 | 10.0 | 0.00 | 0.00 | 0.00 | 91 | 906.9 |
| 20260904054056 | 71 | 258 | 4.0 | 10.0 | 0.00 | 0.00 | 0.00 | 91 | 906.9 |
| 20260904053557 | 71 | 215 | 6.0 | 10.0 | 0.00 | 0.00 | 0.00 | 91 | 906.9 |
| 20260904053456 | 71 | 221 | 6.0 | 10.0 | 0.00 | 0.00 | 0.00 | 90 | 906.9 |
| 20260904053055 | 71 | 275 | 0.0 | 6.0 | 0.00 | 0.00 | 0.00 | 92 | 906.9 |
| 20260904052856 | 71 | 259 | 1.0 | 7.0 | 0.00 | 0.00 | 0.00 | 92 | 906.9 |
| 20260904052555 | 71 | 219 | 3.0 | 7.0 | 0.00 | 0.00 | 0.00 | 93 | 906.9 |
| 20260904052256 | 71 | 289 | 3.0 | 7.0 | 0.00 | 0.00 | 0.00 | 93 | 906.9 |
| 20260904052055 | 71 | 219 | 3.0 | 7.0 | 0.00 | 0.00 | 0.00 | 93 | 906.9 |
| 20260904051656 | 71 | 240 | 3.0 | 5.0 | 0.00 | 0.00 | 0.00 | 92 | 906.9 |
| 20260904051555 | 71 | 262 | 4.0 | 5.0 | 0.00 | 0.00 | 0.00 | 92 | 907.0 |
| 20260904051056 | 71 | 292 | 2.0 | 4.0 | 0.00 | 0.00 | 0.00 | 92 | 907.0 |
| 20260904050456 | 71 | 258 | 3.0 | 6.0 | 0.00 | 0.00 | 0.00 | 91 | 907.1 |
| 20260904050055 | 72 | 221 | 1.0 | 5.0 | 0.00 | 0.00 | 0.00 | 91 | 907.1 |
| 20260904045856 | 72 | 204 | 5.0 | 8.0 | 0.00 | 0.00 | 0.00 | 92 | 907.1 |
| 20260904045555 | 71 | 237 | 1.0 | 5.0 | 0.00 | 0.00 | 0.00 | 92 | 907.2 |
| 20260904045256 | 71 | 231 | 4.0 | 5.0 | 0.00 | 0.00 | 0.00 | 91 | 907.1 |
| 20260904045056 | 71 | 266 | 3.0 | 5.0 | 0.00 | 0.00 | 0.00 | 91 | 907.2 |
| 20260904044656 | 72 | 296 | 1.0 | 5.0 | 0.00 | 0.00 | 0.00 | 92 | 907.2 |
| 20260904044554 | 71 | 256 | 0.0 | 4.0 | 0.00 | 0.00 | 0.00 | 92 | 907.2 |
| 20260904044056 | 71 | 225 | 3.0 | 8.0 | 0.00 | 0.00 | 0.00 | 92 | 907.2 |
| 20260904044054 | 71 | 241 | 3.0 | 8.0 | 0.00 | 0.00 | 0.00 | 92 | 907.2 |
| 20260904043554 | 71 | 240 | 4.0 | 8.0 | 0.00 | 0.00 | 0.00 | 91 | 907.3 |
| 20260904043456 | 71 | 241 | 5.0 | 8.0 | 0.00 | 0.00 | 0.00 | 92 | 907.3 |
| 20260904043054 | 72 | 231 | 4.0 | 7.0 | 0.00 | 0.00 | 0.00 | 91 | 907.3 |
| 20260904042855 | 71 | 182 | 1.0 | 6.0 | 0.00 | 0.00 | 0.00 | 92 | 907.3 |
| 20260904042554 | 71 | 38 | 3.0 | 6.0 | 0.00 | 0.00 | 0.00 | 92 | 907.4 |
| 20260904042256 | 71 | 240 | 1.0 | 3.0 | 0.00 | 0.00 | 0.00 | 91 | 907.4 |
| 20260904042054 | 71 | 231 | 2.0 | 7.0 | 0.00 | 0.00 | 0.00 | 91 | 907.4 |
| 20260904041656 | 71 | 259 | 3.0 | 7.0 | 0.00 | 0.00 | 0.00 | 90 | 907.4 |
| 20260904041554 | 72 | 193 | 3.0 | 7.0 | 0.00 | 0.00 | 0.00 | 90 | 907.4 |
| 20260904041056 | 72 | 293 | 4.0 | 7.0 | 0.00 | 0.00 | 0.00 | 91 | 907.4 |
| 20260904041054 | 72 | 281 | 4.0 | 7.0 | 0.00 | 0.00 | 0.00 | 91 | 907.3 |
| 20260904040554 | 72 | 247 | 3.0 | 6.0 | 0.00 | 0.00 | 0.00 | 91 | 907.4 |
| 20260904040455 | 72 | 212 | 3.0 | 5.0 | 0.00 | 0.00 | 0.00 | 91 | 907.4 |
| 20260904040054 | 72 | 238 | 1.0 | 5.0 | 0.00 | 0.00 | 0.00 | 91 | 907.4 |
| 20260904035855 | 72 | 283 | 2.0 | 5.0 | 0.00 | 0.00 | 0.00 | 91 | 907.4 |
| 20260904035554 | 71 | 244 | 3.0 | 5.0 | 0.00 | 0.00 | 0.00 | 92 | 907.4 |
| 20260904035054 | 71 | 282 | 5.0 | 7.0 | 0.00 | 0.00 | 0.00 | 92 | 907.4 |
| 20260904030554 | 70 | 268 | 0.0 | 4.0 | 0.00 | 0.00 | 0.00 | 93 | 907.7 |
| 20260904030054 | 70 | 267 | 1.0 | 3.0 | 0.00 | 0.00 | 0.00 | 94 | 907.5 |
| 20260904025855 | 70 | 238 | 0.0 | 2.0 | 0.00 | 0.00 | 0.00 | 93 | 907.5 |
| 20260904025554 | 70 | 260 | 3.0 | 6.0 | 0.00 | 0.00 | 0.00 | 94 | 907.5 |
| 20260904025255 | 70 | 291 | 3.0 | 5.0 | 0.00 | 0.00 | 0.00 | 93 | 907.5 |
| 20260904025053 | 70 | 268 | 2.0 | 5.0 | 0.00 | 0.00 | 0.00 | 93 | 907.5 |
| 20260904024655 | 69 | 277 | 1.0 | 6.0 | 0.00 | 0.00 | 0.00 | 94 | 907.6 |
| 20260904024553 | 69 | 258 | 2.0 | 6.0 | 0.00 | 0.00 | 0.00 | 94 | 907.6 |
| 20260904024055 | 70 | 270 | 2.0 | 6.0 | 0.00 | 0.00 | 0.00 | 93 | 907.6 |
| 20260904024053 | 70 | 268 | 2.0 | 6.0 | 0.00 | 0.00 | 0.00 | 93 | 907.6 |
| 20260904023553 | 70 | 218 | 3.0 | 6.0 | 0.00 | 0.00 | 0.00 | 92 | 907.6 |
| 20260904023455 | 70 | 233 | 4.0 | 6.0 | 0.00 | 0.00 | 0.00 | 92 | 907.6 |
| 20260904023053 | 70 | 215 | 2.0 | 6.0 | 0.00 | 0.00 | 0.00 | 92 | 907.7 |
| 20260904022855 | 70 | 233 | 3.0 | 6.0 | 0.00 | 0.00 | 0.00 | 91 | 907.7 |
| 20260904022553 | 70 | 115 | 3.0 | 6.0 | 0.00 | 0.00 | 0.00 | 92 | 907.6 |
| 20260904022255 | 71 | 264 | 2.0 | 6.0 | 0.00 | 0.00 | 0.00 | 92 | 907.5 |
| 20260904022053 | 71 | 258 | 1.0 | 4.0 | 0.00 | 0.00 | 0.00 | 93 | 907.6 |
| 20260904021654 | 70 | 280 | 1.0 | 4.0 | 0.00 | 0.00 | 0.00 | 92 | 907.6 |
| 20260904020553 | 71 | 206 | 1.0 | 3.0 | 0.00 | 0.00 | 0.00 | 90 | 907.4 |
| 20260904020454 | 71 | 204 | 0.0 | 2.0 | 0.00 | 0.00 | 0.00 | 91 | 907.4 |
| 20260904020053 | 71 | 177 | 0.0 | 1.0 | 0.00 | 0.00 | 0.00 | 91 | 907.3 |
| 20260904015854 | 71 | 270 | 0.0 | 1.0 | 0.00 | 0.00 | 0.00 | 90 | 907.3 |
| 20260904015553 | 71 | 58 | 0.0 | 1.0 | 0.00 | 0.00 | 0.00 | 90 | 907.3 |
| 20260904015254 | 71 | 253 | 2.0 | 4.0 | 0.00 | 0.00 | 0.00 | 92 | 907.3 |
| 20260904015053 | 71 | 286 | 1.0 | 4.0 | 0.00 | 0.00 | 0.00 | 91 | 907.3 |
| 20260904014654 | 71 | 206 | 1.0 | 5.0 | 0.00 | 0.00 | 0.00 | 91 | 907.2 |
| 20260904014553 | 71 | 262 | 1.0 | 4.0 | 0.00 | 0.00 | 0.00 | 91 | 907.3 |
| 20260904014055 | 72 | 211 | 0.0 | 0.0 | 0.00 | 0.00 | 0.00 | 91 | 907.2 |
| 20260904014053 | 72 | 198 | 0.0 | 0.0 | 0.00 | 0.00 | 0.00 | 91 | 907.2 |
| 20260904013553 | 72 | 112 | 0.0 | 3.0 | 0.00 | 0.00 | 0.00 | 92 | 907.3 |
| 20260904013454 | 72 | 191 | 1.0 | 2.0 | 0.00 | 0.00 | 0.00 | 92 | 907.3 |
| 20260904013053 | 72 | 93 | 0.0 | 3.0 | 0.00 | 0.00 | 0.00 | 90 | 907.3 |
| 20260904012854 | 72 | 150 | 0.0 | 3.0 | 0.00 | 0.00 | 0.00 | 91 | 907.3 |
| 20260904012255 | 72 | 83 | 1.0 | 3.0 | 0.00 | 0.00 | 0.00 | 90 | 907.3 |
| 20260904012053 | 72 | 129 | 0.0 | 2.0 | 0.00 | 0.00 | 0.00 | 91 | 907.3 |
| 20260904011654 | 71 | 295 | 0.0 | 0.0 | 0.00 | 0.00 | 0.00 | 90 | 907.2 |
| 20260904011553 | 72 | 212 | 1.0 | 5.0 | 0.00 | 0.00 | 0.00 | 90 | 907.2 |
| 20260904011054 | 72 | 202 | 0.0 | 2.0 | 0.00 | 0.00 | 0.00 | 91 | 907.2 |
| 20260904010554 | 70 | 200 | 0.0 | 0.0 | 0.00 | 0.00 | 0.00 | 92 | 907.1 |
| 20260904010454 | 70 | 263 | 1.0 | 3.0 | 0.00 | 0.00 | 0.00 | 92 | 907.2 |
| 20260904010053 | 70 | 267 | 1.0 | 4.0 | 0.00 | 0.00 | 0.00 | 92 | 907.1 |
| 20260904005856 | 70 | 245 | 1.0 | 4.0 | 0.00 | 0.00 | 0.00 | 92 | 907.1 |
| 20260904005552 | 69 | 219 | 1.0 | 3.0 | 0.00 | 0.00 | 0.00 | 92 | 907.0 |
| 20260904005254 | 69 | 184 | 1.0 | 3.0 | 0.00 | 0.00 | 0.00 | 92 | 907.1 |
| 20260904005053 | 69 | 238 | 0.0 | 3.0 | 0.00 | 0.00 | 0.00 | 93 | 907.1 |
| 20260904004654 | 70 | 272 | 0.0 | 3.0 | 0.00 | 0.00 | 0.00 | 92 | 907.0 |
| 20260904004553 | 70 | 238 | 1.0 | 4.0 | 0.00 | 0.00 | 0.00 | 91 | 907.0 |
| 20260904004054 | 71 | 225 | 2.0 | 5.0 | 0.00 | 0.00 | 0.00 | 92 | 906.9 |
| 20260904003552 | 71 | 207 | 3.0 | 5.0 | 0.00 | 0.00 | 0.00 | 92 | 906.9 |
| 20260904003454 | 71 | 245 | 3.0 | 5.0 | 0.00 | 0.00 | 0.00 | 92 | 906.8 |
| 20260904003052 | 71 | 243 | 2.0 | 6.0 | 0.00 | 0.00 | 0.00 | 92 | 906.8 |
| 20260904002854 | 71 | 195 | 2.0 | 6.0 | 0.00 | 0.00 | 0.00 | 92 | 906.8 |
| 20260904002553 | 70 | 197 | 3.0 | 6.0 | 0.00 | 0.00 | 0.00 | 92 | 906.8 |
| 20260904002254 | 70 | 213 | 3.0 | 6.0 | 0.00 | 0.00 | 0.00 | 92 | 906.8 |
| 20260904002052 | 70 | 227 | 3.0 | 6.0 | 0.00 | 0.00 | 0.00 | 92 | 906.8 |
| 20260904001654 | 70 | 170 | 3.0 | 6.0 | 0.00 | 0.00 | 0.00 | 92 | 906.8 |
| 20260904001552 | 70 | 215 | 3.0 | 6.0 | 0.00 | 0.00 | 0.00 | 92 | 906.7 |
| 20260904001054 | 70 | 184 | 3.0 | 6.0 | 0.00 | 0.00 | 0.00 | 93 | 906.7 |
| 20260904001052 | 70 | 188 | 3.0 | 6.0 | 0.00 | 0.00 | 0.00 | 93 | 906.7 |
| 20260904000552 | 69 | 180 | 4.0 | 5.0 | 0.00 | 0.00 | 0.00 | 93 | 906.6 |
| 20260904000052 | 69 | 219 | 2.0 | 5.0 | 0.00 | 0.00 | 0.00 | 93 | 906.6 |
| 20260903235853 | 68 | 222 | 0.0 | 3.0 | 0.00 | 0.00 | 0.00 | 93 | 906.6 |
| 20260903235552 | 68 | 218 | 2.0 | 4.0 | 0.00 | 0.00 | 0.00 | 94 | 906.6 |
| 20260903235254 | 68 | 197 | 3.0 | 4.0 | 0.00 | 0.00 | 0.00 | 93 | 906.6 |
| 20260903235052 | 68 | 262 | 2.0 | 4.0 | 0.00 | 0.00 | 0.00 | 93 | 906.6 |
| 20260903234653 | 68 | 262 | 2.0 | 4.0 | 0.00 | 0.00 | 0.00 | 94 | 906.5 |
| 20260903234552 | 68 | 272 | 2.0 | 3.0 | 0.00 | 0.00 | 0.00 | 94 | 906.6 |
| 20260903234054 | 68 | 270 | 1.0 | 3.0 | 0.00 | 0.00 | 0.00 | 93 | 906.6 |
| 20260903234052 | 68 | 275 | 1.0 | 3.0 | 0.00 | 0.00 | 0.00 | 93 | 906.5 |
| 20260903233552 | 68 | 233 | 2.0 | 4.0 | 0.00 | 0.00 | 0.00 | 93 | 906.5 |
| 20260903233453 | 68 | 252 | 2.0 | 4.0 | 0.00 | 0.00 | 0.00 | 93 | 906.5 |
| 20260903233052 | 68 | 265 | 2.0 | 4.0 | 0.00 | 0.00 | 0.00 | 94 | 906.4 |
| 20260903232853 | 68 | 217 | 2.0 | 4.0 | 0.00 | 0.00 | 0.00 | 93 | 906.3 |
| 20260903232552 | 68 | 215 | 2.0 | 4.0 | 0.00 | 0.00 | 0.00 | 93 | 906.3 |
| 20260903232254 | 68 | 219 | 3.0 | 4.0 | 0.00 | 0.00 | 0.00 | 93 | 906.2 |
| 20260903232052 | 68 | 226 | 2.0 | 3.0 | 0.00 | 0.00 | 0.00 | 94 | 906.3 |
| 20260903231653 | 68 | 247 | 2.0 | 4.0 | 0.00 | 0.00 | 0.00 | 94 | 906.2 |
| 20260903231552 | 68 | 231 | 2.0 | 4.0 | 0.00 | 0.00 | 0.00 | 94 | 906.2 |
| 20260903231054 | 67 | 257 | 2.0 | 4.0 | 0.00 | 0.00 | 0.00 | 94 | 906.2 |
| 20260903231052 | 67 | 262 | 2.0 | 4.0 | 0.00 | 0.00 | 0.00 | 94 | 906.1 |
| 20260903230552 | 67 | 270 | 2.0 | 4.0 | 0.00 | 0.00 | 0.00 | 94 | 906.1 |
| 20260903230453 | 67 | 265 | 2.0 | 4.0 | 0.00 | 0.00 | 0.00 | 94 | 906.0 |
| 20260903230052 | 67 | 257 | 2.0 | 4.0 | 0.00 | 0.00 | 0.00 | 94 | 905.9 |
| 20260903225853 | 67 | 230 | 2.0 | 4.0 | 0.00 | 0.00 | 0.00 | 94 | 905.9 |
| 20260903225552 | 67 | 269 | 1.0 | 3.0 | 0.00 | 0.00 | 0.00 | 94 | 905.9 |
| 20260903225253 | 67 | 261 | 3.0 | 4.0 | 0.00 | 0.00 | 0.00 | 94 | 905.9 |
| 20260903225052 | 67 | 258 | 3.0 | 4.0 | 0.00 | 0.00 | 0.00 | 94 | 905.8 |
| 20260903224653 | 67 | 261 | 3.0 | 4.0 | 0.00 | 0.00 | 0.00 | 94 | 905.8 |
| 20260903224552 | 67 | 250 | 2.0 | 4.0 | 0.00 | 0.00 | 0.00 | 94 | 905.8 |
| 20260903224053 | 67 | 234 | 2.0 | 4.0 | 0.00 | 0.00 | 0.00 | 94 | 905.8 |
| 20260903224051 | 67 | 225 | 2.0 | 4.0 | 0.00 | 0.00 | 0.00 | 94 | 905.8 |